Regional Weather Roundup
Issued by NWS Nashville, TN

Home | Current Version | Previous Version | Text Only | Print | Product List | Glossary On
Versions: 1 2 3 4 5 6 7 8 9 10 11 12 13 14 15 16 17 18 19 20 21 22 23 24 25 26 27
000
ASUS44 KOHX 282010
RWROHX
MIDDLE TENNESSEE HOURLY WEATHER ROUNDUP
NATIONAL WEATHER SERVICE NASHVILLE TN
300 PM CDT FRI APR 28 2017

NOTE: "FAIR" INDICATES FEW OR NO CLOUDS BELOW 12,000 FEET WITH
NO SIGNIFICANT WEATHER AND/OR OBSTRUCTIONS TO VISIBILITY.

* THESE REPORTS ARE NOT UNDER NWS QUALITY CONTROL AND MAY NOT
  REPORT WEATHER SUCH AS PRECIPITATION AND FOG.


TNZ005>011-023>034-057-059-062>066-078-080-282100
...NORTHERN MIDDLE TENNESSEE...

CITY           SKY/WX    TMP DP  RH WIND       PRES   REMARKS
CLARKSVILLE    CLOUDY    75  66  73 S10       29.84F
CROSSVILLE     PTSUNNY   74  62  66 S10G20    30.01S
GALLATIN       PTSUNNY   79  66  65 S13       29.92F
DICKSON        SUNNY     77  68  73 S12       29.86F
LEBANON        PTSUNNY   78  66  66 S10       29.89F
NASHVILLE      LGT RAIN  75  68  78 S15       29.91S
PORTLAND       PTSUNNY   79  66  65 S16       29.88F
SMYRNA         CLOUDY    78  67  68 S7        29.91F
SPARTA         MOSUNNY   79  64  61 S14G22    29.94F
SPRINGFIELD    PTSUNNY   75  68  78 S8G16     29.86F
WEST NASHVILLE PTSUNNY   75  68  78 S9        29.88S
$$
TNZ056-058-060-061-075>077-079-093>097-282100
...SOUTHERN MIDDLE TENNESSEE...

CITY           SKY/WX    TMP DP  RH WIND       PRES   REMARKS
COLUMBIA       PTSUNNY   79  79 100 S8        29.88F
MCMINNVILLE    MOSUNNY   81  66  61 S9        29.94F
MURFREESBORO   CLOUDY    79  65  62 VRB7      29.90
SHELBYVILLE    PTSUNNY   82  70  65 S13       29.93S
TULLAHOMA      MOSUNNY   81  66  61 S9        29.95F
WINCHESTER     PTSUNNY   81  64  57 S10       29.95S
$$


...KEY TO REMARKS...
VSB - VISIBILITY IN MILES
WCI - WIND CHILL INDEX
HX  - HEAT INDEX





USA.gov is the U.S. government's official web portal to all federal, state and local government web resources and services.